{"data":{"norad_id":52282,"intl_designator":"2022-041X","name":"STARLINK-3783","alt_names":[],"object_type":"PAYLOAD","status":"ACTIVE","operator":null,"country":"US","launch_date":"2022-04-21","launch_site_code":"AFETR","launch_vehicle":null,"mission":null,"orbit_class":"UNKNOWN","rcs_meters":null,"size_class":null,"mass_kg":null,"dimensions":null,"purposes":["comms"],"wikipedia_slug":null,"has_3d_model":false,"image_url":null,"decayed_at":null,"tle_current":{"epoch":"2026-05-25T03:46:54.264000Z","epoch_age_seconds":57323,"freshness":"FRESH","line1":"1 52282U 22041X   26145.15757250 -.00000090  00000+0  12448-4 0  9990","line2":"2 52282  53.2132 115.8400 0001318  73.9894 286.1243 15.08836983226040","mean_motion":15.08836983,"eccentricity":0.0001318,"inclination_deg":53.2132,"raan_deg":115.84,"arg_perigee_deg":73.9894,"mean_anomaly_deg":286.1243,"bstar":1.2448e-5,"rev_number":22604,"period_min":95.437745510245,"perigee_km":538.8408328908,"apogee_km":540.6643885922,"semimajor_km":6917.8896107415,"source":"CELESTRAK","updated_at":"2026-05-25T13:38:17.084108Z"}}}